SCP
0 0 0 0 0 0 0 0 0 0 0 0 0 0 0 -0 -0 -0 -0 0 -0 -0 0 0 0 0 0 0 0 0 0 0 0 0 0 -0 -0 -0 0 0 0 -0 0 0
0 0 0 0 0 0 0 0 0 0 0 0 0 0 0 0 0 0 0 -0 0 0 0 -0 -0 0 0 0 0 0 0 0 0 -0 -0 0 0 0 -0 0 0 0 0 0
0 0 0 0 0 0 0 0 0 0 0 0 0 0 0 0 0 0 0 0 0 -0 -0 -0 -0 -0 -0 0 0 0 0 0 0 0 0 0 0 0 0 0 0 0 0 0
0 0 0 0 0 0 0 0 0 0 0 0 0 0 0 0 0 0 0 0 0 -0 -0 -0 -0 -0 -0 0 0 0 0 0 0 0 0 0 0 0 -0 -0 -0 0 0 0
0 0 0 0 0 0 0 0 0 0 0 0 0 0 0 0 0 0 -0 -0 -0 -0 -0 -0 -0 -0 0 0 0 0 0 0 0 0 0 0 0 -0 0 -0 0 0 0 0
0 0 0 0 0 0 0 0 0 0 0 0 0 0 0 0 0 0 0 0 0 0 0 0 0 0 -0 0 0 0 0 0 0 0 0 0 0 0 -0 -0 0 -0 -0 0
0 0 0 0 0 0 0 0 0 0 0 0 0 0 0 0 0 0 0 0 0 0 0 0 0 0 0 0 0 0 0 0 0 0 0 0 0 0 0 0 -0 -0 -0 -0
0 0 0 0 0 0 0 0 0 0 0 0 0 0 0 0 0 0 0 0 0 0 0 0 0 0 0 0 0 0 0 0 0 0 0 0 0 0 0 0 0 0 -0 -0
0 0 0 0 0 0 0 0 0 0 0 0 0 0 0 0 0 0 0 0 0 0 0 0 0 0 0 0 0 0 0 0 0 0 0 0 0 0 0 0 0 0 0 0
0 0 0 0 0 0 0 0 0 0 0 0 0 0 0 0 0 0 0 0 0 0 0 0 0 0 0 0 0 0 0 0 0 0 0 0 0 0 0 0 0 0 0 0
0 0 0 0 0 0 0 0 0 0 0 0 0 0 0 0 0 0 0 0 0 0 0 0 0 0 0 0 0 0 0 0 0 0 0 0 0 0 0 0 0 0 0 0
0 0 0 0 0 0 0 0 0 0 0 0 0 0 0 0 0 0 0 0 0 0 0 0 0 0 0 0 0 0 0 0 0 0 0 0 0 0 0 0 0 0 0 0
0 0 0 0 0 0 0 0 0 0 0 0 0 0 0 0 0 0 0 0 0 0 0 0 0 0 0 0 0 0 0 0 0 0 0 0 0 0 0 0 0 0 0 0
0 0 0 0 0 0 0 0 0 0 0 0 0 0 0 0 0 0 0 0 0 0 0 0 0 0 0 0 0 0 0 0 0 0 0 0 0 0 0 0 0 0 0 0
0 0 0 0 0 0 0 0 0 0 0 0 0 0 0 0 0 0 0 0 0 0 0 0 0 0 0 0 0 0 0 0 0 0 0 0 0 0 0 0 0 0 0 0
0 0 0 0 0 0 0 0 0 0 0 0 0 0 0 0 0 0 0 0 0 0 0 0 0 0 0 0 0 0 0 0 0 0 0 0 0 0 0 0 0 0 0 0
0 0 0 0 0 0 0 0 0 0 0 0 0 0 0 0 0 0 0 0 0 0 0 0 0 0 0 0 0 0 0 0 0 0 0 0 0 0 0 -0 -0 0 0 0
0 0 0 0 0 0 0 0 0 0 0 0 0 0 0 0 0 -0 -0 -0 -0 0 0 0 0 0 0 0 0 0 0 0 0 0 0 0 0 0 0 0 -0 -0 -0 -0
0 0 0 0 0 0 0 0 0 0 0 0 0 0 0 0 0 -0 -0 0 0 -0 0 0 0 0 0 0 0 0 0 0 0 0 0 0 -0 -0 -0 0 0 0 -0 0
0 0 0 0 0 0 0 0 0 0 0 0 0 0 0 0 -0 -0 -0 0 0 -0 -0 0 0 0 0 0 0 0 0 0 0 0 0 0 0 0 0 0 0 0 -0 -0
0 0 0 0 0 0 0 0 0 0 0 0 0 0 0 -0 -0 -0 -0 0 0 0 0 0 0 0 0 0 0 0 0 0 0 0 0 0 0 0 0 -0 -0 -0 -0 -0
0 0 0 0 0 0 0 0 0 0 0 0 0 0 0 -0 0 0 -0 0 0 0 -0 -0 -0 -0 0 0 0 0 0 0 0 0 0 0 0 0 0 -0 -0 -0 -0 -0
0 0 0 0 0 0 0 0 0 0 0 0 0 0 0 0 0 0 0 -0 0 0 -0 -0 -0 -0 -0 0 0 0 0 0 0 0 0 0 0 0 0 0 -0 -0 -0 -0
0 0 0 0 0 0 0 0 0 0 0 0 0 0 0 0 0 0 0 -0 0 -0 -0 -0 0 0 0 0 0 0 0 0 0 0 -0 -0 0 0 0 0 0 0 -0 0
0 0 0 0 0 0 0 0 0 0 0 0 0 0 0 0 0 0 0 0 -0 0 0 0 0 0 0 0 0 0 0 0 0 0 0 0 0 0 0 0 0 0 0 0
0 0 0 0 0 0 0 0 0 0 0 0 0 0 0 0 0 0 0 0 0 0 0 0 0 0 0 0 0 0 0 0 0 0 0 0 0 0 0 0 0 -0 -0 -0
0 0 0 0 0 0 0 0 0 0 0 0 0 0 0 0 0 0 0 0 0 0 0 0 0 0 0 0 0 0 0 0 0 0 0 0 0 0 0 0 0 0 0 0
Wind_Speed_500mb
34 37 29 29 27 31 33 31 18 37 35 42 36 8 5 2 7 14 14 12 16 20 28 35 40 44 49 49 50 54 57 61 65 69 68 68 70 68 65 64 63 62 62 51
18 24 26 20 28 39 41 46 46 49 53 23 1 3 9 12 14 14 13 17 23 28 34 38 39 40 44 50 54 57 60 62 66 71 74 76 78 74 78 76 74 70 67 64
34 31 23 24 42 40 47 48 47 42 21 7 2 13 21 19 25 27 24 29 31 30 32 34 43 46 49 52 52 55 63 70 73 76 79 81 84 89 86 85 82 83 79 75
21 9 37 27 14 22 30 19 5 5 9 7 11 24 28 26 34 38 32 32 36 37 37 38 47 50 55 62 65 67 69 70 74 83 88 91 94 93 96 98 94 94 92 90
13 25 31 36 18 12 12 19 16 13 9 8 21 22 44 33 39 44 42 41 42 55 63 67 66 64 73 81 80 79 81 80 78 80 85 90 98 104 103 104 108 104 102 99
7 12 18 12 5 6 6 17 17 14 9 16 15 19 28 52 46 48 50 54 55 63 73 80 82 84 83 83 84 87 90 93 95 97 96 95 95 99 109 116 117 118 117 108
25 21 18 10 8 13 9 10 21 20 30 30 21 37 55 53 47 55 60 67 64 65 80 84 89 92 96 94 86 72 76 96 107 110 113 118 119 114 111 112 121 128 124 122
2 7 21 11 14 12 3 14 44 42 46 44 47 46 47 49 50 46 52 61 67 82 88 91 91 90 98 104 94 81 78 85 92 106 115 122 121 127 125 120 116 121 129 127
17 12 4 21 17 37 58 63 63 52 52 44 41 44 43 42 44 45 49 64 75 83 91 93 96 93 96 111 105 111 112 114 105 98 99 104 105 109 105 106 104 114 115 107
24 39 44 63 70 73 70 60 56 52 53 52 41 35 44 43 46 52 59 63 70 81 91 102 103 104 99 104 108 112 114 111 99 91 90 87 86 85 85 87 87 85 90 92
28 43 52 65 66 75 71 61 53 49 45 38 36 39 39 44 52 55 57 62 64 79 93 105 103 101 98 99 96 96 94 90 85 82 80 81 78 77 78 81 77 81 83 79
30 58 48 63 65 60 47 48 46 41 37 35 34 37 43 50 50 56 59 67 77 83 89 93 91 94 95 88 81 83 88 84 80 82 82 80 81 85 76 75 78 83 88 90
55 81 70 79 67 55 53 49 40 33 34 32 35 39 42 49 53 61 69 73 78 81 83 84 87 91 88 77 73 77 82 84 84 82 81 80 79 80 84 80 66 69 72 76
73 66 57 60 37 45 43 41 34 30 31 31 35 38 44 51 58 65 72 76 74 73 75 78 84 87 77 69 72 75 77 80 83 82 82 81 81 81 79 77 78 78 60 57
63 58 53 44 35 33 31 31 29 27 29 31 34 39 46 55 64 71 72 67 66 69 75 77 80 81 73 72 71 74 76 78 78 82 82 82 83 82 79 76 76 73 74 53
39 38 31 29 30 30 26 25 26 27 29 32 37 42 49 56 63 66 62 57 63 70 71 72 76 78 74 68 67 70 73 71 74 78 80 81 78 74 72 68 67 65 58 44
20 21 25 23 23 24 27 26 26 28 33 37 42 47 52 56 60 59 53 51 56 61 62 67 74 71 69 66 61 61 65 72 67 67 67 71 72 71 64 57 53 46 40 31
23 24 21 22 23 25 26 27 29 34 39 42 46 49 52 53 54 52 47 49 52 54 58 64 67 67 62 55 54 56 58 56 55 54 53 52 52 49 44 41 39 38 38 37
19 18 18 19 22 26 29 32 36 40 40 43 46 49 48 46 43 40 39 43 46 54 58 60 62 62 60 55 49 48 46 46 46 45 43 41 38 30 26 29 28 25 23 19
14 16 20 23 26 30 34 36 42 44 39 44 46 46 43 34 29 29 30 33 37 44 49 53 56 58 59 51 44 42 41 40 40 40 40 39 38 35 30 25 20 15 9 5
16 20 24 29 32 32 36 41 45 46 42 41 42 39 35 25 20 22 26 29 31 36 40 45 50 56 54 50 44 39 39 39 38 40 41 41 40 38 35 32 28 24 20 19
21 25 28 33 37 38 35 39 41 43 41 37 32 29 24 18 17 15 17 25 29 34 37 40 43 47 47 47 47 45 41 41 42 42 43 44 44 43 41 38 35 32 30 30
24 29 31 33 36 37 34 32 32 33 32 27 24 19 17 15 15 17 14 17 23 28 31 34 37 39 40 44 46 48 50 48 45 45 45 46 47 47 46 47 47 47 46 46
21 24 26 28 30 31 30 23 23 23 21 17 14 13 13 12 10 11 14 17 19 22 25 27 30 32 35 38 41 44 46 48 49 49 47 45 44 44 45 44 44 43 42 42
15 18 20 23 22 21 21 19 16 12 11 10 7 8 9 8 7 8 11 14 16 18 19 21 23 25 28 32 35 37 40 42 43 44 44 45 45 45 44 42 41 39 37 36
11 14 16 17 18 18 16 13 12 8 7 4 3 4 5 5 7 9 11 13 15 17 19 21 22 24 25 26 26 28 29 31 32 34 34 35 35 36 36 34 32 31 30 29
10 10 11 11 13 13 12 11 9 7 5 5 3 5 5 6 7 9 11 12 15 16 18 20 21 22 23 24 25 25 25 24 24 23 23 23 23 23 23 22 21 21 19 18
Wind_Direction_500mb
277 283 285 274 274 275 266 274 265 283 278 276 291 336 29 40 287 255 271 307 329 333 336 336 333 333 330 334 336 335 335 334 333 332 331 331 332 330 329 325 322 317 316 313
272 275 264 267 271 269 273 271 265 263 268 295 352 312 285 297 311 289 303 314 321 326 325 326 324 318 318 320 324 328 327 327 326 325 325 326 328 328 328 328 325 320 314 310
271 283 311 272 249 266 273 272 269 269 300 90 302 301 312 314 317 307 308 327 324 309 301 298 314 310 312 312 311 312 313 315 317 318 318 319 320 320 322 323 323 322 319 313
272 317 263 279 313 269 264 280 162 128 169 206 280 300 296 296 295 294 279 299 313 315 310 302 302 302 308 310 306 305 303 302 304 308 310 312 312 313 315 317 317 316 316 313
248 248 286 299 247 230 227 283 198 173 182 302 293 284 286 288 294 288 271 286 305 318 318 315 312 312 314 312 310 306 304 302 301 299 298 300 303 306 308 309 309 310 308 307
161 243 262 300 147 123 139 274 178 190 223 290 294 283 295 310 302 296 287 282 300 307 311 311 312 313 312 309 308 307 307 304 303 301 298 294 293 294 298 301 300 301 301 300
232 249 268 248 157 153 235 302 163 230 271 277 270 268 284 292 293 299 289 283 292 305 309 307 309 310 308 309 305 301 297 300 299 298 297 297 295 292 289 288 290 293 293 294
185 250 268 157 127 218 264 287 301 296 292 289 290 284 285 288 292 289 282 288 295 304 304 304 307 310 308 307 308 302 297 293 290 292 293 293 293 292 290 288 285 282 287 288
215 243 255 190 248 268 285 287 286 287 291 293 284 282 287 290 289 288 292 298 302 303 304 306 309 309 306 305 303 302 298 295 293 291 288 289 289 290 288 288 286 282 280 282
260 255 259 269 271 273 277 278 282 286 290 289 282 283 289 291 292 296 301 304 305 305 307 307 308 308 307 306 306 304 299 296 295 293 291 287 285 283 282 281 280 276 276 275
255 261 270 264 264 269 271 275 276 275 278 280 284 289 292 294 299 303 304 305 306 307 309 309 312 311 312 313 312 308 304 300 299 297 294 291 286 281 278 275 272 273 271 271
252 265 262 272 274 275 272 265 261 266 273 278 284 289 294 299 302 304 307 310 312 312 313 314 315 314 315 317 315 311 307 302 299 297 295 292 289 288 285 278 275 271 269 267
252 264 272 272 273 267 263 261 258 263 270 276 284 288 295 301 305 309 314 316 317 317 316 319 318 315 319 319 315 309 304 304 302 297 293 291 289 287 288 293 284 276 272 269
263 273 269 261 252 257 254 253 257 263 272 279 287 297 303 305 308 314 319 322 319 318 322 323 322 320 322 320 316 311 311 310 303 298 295 292 289 287 286 285 288 290 288 276
271 262 256 259 249 246 241 247 258 269 280 286 292 301 305 310 315 319 321 322 320 324 332 328 324 327 329 323 319 316 313 311 309 306 299 296 293 287 284 283 283 285 293 295
262 259 251 240 239 243 251 257 267 276 281 290 301 307 311 314 316 318 324 325 329 333 333 331 332 334 329 324 320 320 317 310 308 305 305 302 298 290 288 286 286 288 290 294
241 245 240 236 238 249 260 269 277 284 291 299 305 307 310 315 318 322 328 332 333 334 339 342 338 335 334 331 324 321 323 319 319 315 312 310 307 300 298 299 298 297 298 307
248 251 254 250 252 259 267 277 285 290 294 300 303 309 314 317 320 324 329 334 335 340 354 349 344 344 337 337 336 328 323 327 331 332 333 327 323 317 312 311 312 313 313 304
247 251 255 260 267 274 283 287 287 289 298 302 304 307 311 317 317 321 329 335 337 346 356 353 352 351 350 350 341 338 339 341 345 348 351 352 352 350 336 319 309 300 305 304
259 266 271 274 277 283 286 289 291 294 301 299 299 303 307 311 311 317 325 333 344 346 351 354 357 2 358 357 356 355 355 357 0 4 8 11 13 15 16 13 6 4 1 10
270 278 284 287 289 291 294 295 295 296 296 295 296 300 300 302 304 315 321 334 350 352 356 359 2 9 7 9 12 14 15 16 18 20 24 27 30 35 37 38 43 50 58 77
287 291 294 296 296 297 296 294 292 293 294 295 292 288 287 289 295 306 316 337 351 355 3 3 8 12 10 17 24 29 34 35 37 37 39 39 42 45 45 48 55 63 78 91
299 302 304 304 304 305 306 302 295 294 294 291 282 275 275 282 294 309 325 342 353 357 3 6 10 12 13 23 30 37 42 46 50 51 50 49 49 51 55 60 67 76 85 93
310 310 311 309 309 309 309 305 294 292 289 285 277 270 273 278 269 301 324 343 352 356 358 4 9 14 17 25 30 36 42 46 50 56 61 64 64 64 65 67 71 76 84 90
327 326 324 322 321 316 311 310 308 299 298 292 270 267 273 281 290 309 335 345 348 351 356 1 7 11 18 25 30 34 38 41 45 50 55 60 66 72 76 79 81 81 83 85
357 346 340 338 337 334 331 328 328 323 323 300 276 286 282 294 306 323 338 343 350 355 360 8 12 16 20 24 28 32 37 41 43 46 49 53 58 63 67 71 76 81 86 90
18 13 12 7 4 4 360 354 353 352 337 353 317 325 324 321 329 339 341 346 351 355 1 6 9 12 15 19 22 25 28 32 35 37 39 44 50 55 58 60 63 66 69 72
Wind_Speed_850mb
34 37 29 29 27 31 33 31 18 37 35 42 36 8 5 2 7 14 14 12 16 20 28 35 40 44 49 49 50 54 57 61 65 69 68 68 70 68 65 64 63 62 62 51
18 24 26 20 28 39 41 46 46 49 53 23 1 3 9 12 14 14 13 17 23 28 34 38 39 40 44 50 54 57 60 62 66 71 74 76 78 74 78 76 74 70 67 64
34 31 23 24 42 40 47 48 47 42 21 7 2 13 21 19 25 27 24 29 31 30 32 34 43 46 49 52 52 55 63 70 73 76 79 81 84 89 86 85 82 83 79 75
21 9 37 27 14 22 30 19 5 5 9 7 11 24 28 26 34 38 32 32 36 37 37 38 47 50 55 62 65 67 69 70 74 83 88 91 94 93 96 98 94 94 92 90
13 25 31 36 18 12 12 19 16 13 9 8 21 22 44 33 39 44 42 41 42 55 63 67 66 64 73 81 80 79 81 80 78 80 85 90 98 104 103 104 108 104 102 99
7 12 18 12 5 6 6 17 17 14 9 16 15 19 28 52 46 48 50 54 55 63 73 80 82 84 83 83 84 87 90 93 95 97 96 95 95 99 109 116 117 118 117 108
25 21 18 10 8 13 9 10 21 20 30 30 21 37 55 53 47 55 60 67 64 65 80 84 89 92 96 94 86 72 76 96 107 110 113 118 119 114 111 112 121 128 124 122
2 7 21 11 14 12 3 14 44 42 46 44 47 46 47 49 50 46 52 61 67 82 88 91 91 90 98 104 94 81 78 85 92 106 115 122 121 127 125 120 116 121 129 127
17 12 4 21 17 37 58 63 63 52 52 44 41 44 43 42 44 45 49 64 75 83 91 93 96 93 96 111 105 111 112 114 105 98 99 104 105 109 105 106 104 114 115 107
24 39 44 63 70 73 70 60 56 52 53 52 41 35 44 43 46 52 59 63 70 81 91 102 103 104 99 104 108 112 114 111 99 91 90 87 86 85 85 87 87 85 90 92
28 43 52 65 66 75 71 61 53 49 45 38 36 39 39 44 52 55 57 62 64 79 93 105 103 101 98 99 96 96 94 90 85 82 80 81 78 77 78 81 77 81 83 79
30 58 48 63 65 60 47 48 46 41 37 35 34 37 43 50 50 56 59 67 77 83 89 93 91 94 95 88 81 83 88 84 80 82 82 80 81 85 76 75 78 83 88 90
55 81 70 79 67 55 53 49 40 33 34 32 35 39 42 49 53 61 69 73 78 81 83 84 87 91 88 77 73 77 82 84 84 82 81 80 79 80 84 80 66 69 72 76
73 66 57 60 37 45 43 41 34 30 31 31 35 38 44 51 58 65 72 76 74 73 75 78 84 87 77 69 72 75 77 80 83 82 82 81 81 81 79 77 78 78 60 57
63 58 53 44 35 33 31 31 29 27 29 31 34 39 46 55 64 71 72 67 66 69 75 77 80 81 73 72 71 74 76 78 78 82 82 82 83 82 79 76 76 73 74 53
39 38 31 29 30 30 26 25 26 27 29 32 37 42 49 56 63 66 62 57 63 70 71 72 76 78 74 68 67 70 73 71 74 78 80 81 78 74 72 68 67 65 58 44
20 21 25 23 23 24 27 26 26 28 33 37 42 47 52 56 60 59 53 51 56 61 62 67 74 71 69 66 61 61 65 72 67 67 67 71 72 71 64 57 53 46 40 31
23 24 21 22 23 25 26 27 29 34 39 42 46 49 52 53 54 52 47 49 52 54 58 64 67 67 62 55 54 56 58 56 55 54 53 52 52 49 44 41 39 38 38 37
19 18 18 19 22 26 29 32 36 40 40 43 46 49 48 46 43 40 39 43 46 54 58 60 62 62 60 55 49 48 46 46 46 45 43 41 38 30 26 29 28 25 23 19
14 16 20 23 26 30 34 36 42 44 39 44 46 46 43 34 29 29 30 33 37 44 49 53 56 58 59 51 44 42 41 40 40 40 40 39 38 35 30 25 20 15 9 5
16 20 24 29 32 32 36 41 45 46 42 41 42 39 35 25 20 22 26 29 31 36 40 45 50 56 54 50 44 39 39 39 38 40 41 41 40 38 35 32 28 24 20 19
21 25 28 33 37 38 35 39 41 43 41 37 32 29 24 18 17 15 17 25 29 34 37 40 43 47 47 47 47 45 41 41 42 42 43 44 44 43 41 38 35 32 30 30
24 29 31 33 36 37 34 32 32 33 32 27 24 19 17 15 15 17 14 17 23 28 31 34 37 39 40 44 46 48 50 48 45 45 45 46 47 47 46 47 47 47 46 46
21 24 26 28 30 31 30 23 23 23 21 17 14 13 13 12 10 11 14 17 19 22 25 27 30 32 35 38 41 44 46 48 49 49 47 45 44 44 45 44 44 43 42 42
15 18 20 23 22 21 21 19 16 12 11 10 7 8 9 8 7 8 11 14 16 18 19 21 23 25 28 32 35 37 40 42 43 44 44 45 45 45 44 42 41 39 37 36
11 14 16 17 18 18 16 13 12 8 7 4 3 4 5 5 7 9 11 13 15 17 19 21 22 24 25 26 26 28 29 31 32 34 34 35 35 36 36 34 32 31 30 29
10 10 11 11 13 13 12 11 9 7 5 5 3 5 5 6 7 9 11 12 15 16 18 20 21 22 23 24 25 25 25 24 24 23 23 23 23 23 23 22 21 21 19 18
Wind_Direction_850mb
277 283 285 274 274 275 266 274 265 283 278 276 291 336 29 40 287 255 271 307 329 333 336 336 333 333 330 334 336 335 335 334 333 332 331 331 332 330 329 325 322 317 316 313
272 275 264 267 271 269 273 271 265 263 268 295 352 312 285 297 311 289 303 314 321 326 325 326 324 318 318 320 324 328 327 327 326 325 325 326 328 328 328 328 325 320 314 310
271 283 311 272 249 266 273 272 269 269 300 90 302 301 312 314 317 307 308 327 324 309 301 298 314 310 312 312 311 312 313 315 317 318 318 319 320 320 322 323 323 322 319 313
272 317 263 279 313 269 264 280 162 128 169 206 280 300 296 296 295 294 279 299 313 315 310 302 302 302 308 310 306 305 303 302 304 308 310 312 312 313 315 317 317 316 316 313
248 248 286 299 247 230 227 283 198 173 182 302 293 284 286 288 294 288 271 286 305 318 318 315 312 312 314 312 310 306 304 302 301 299 298 300 303 306 308 309 309 310 308 307
161 243 262 300 147 123 139 274 178 190 223 290 294 283 295 310 302 296 287 282 300 307 311 311 312 313 312 309 308 307 307 304 303 301 298 294 293 294 298 301 300 301 301 300
232 249 268 248 157 153 235 302 163 230 271 277 270 268 284 292 293 299 289 283 292 305 309 307 309 310 308 309 305 301 297 300 299 298 297 297 295 292 289 288 290 293 293 294
185 250 268 157 127 218 264 287 301 296 292 289 290 284 285 288 292 289 282 288 295 304 304 304 307 310 308 307 308 302 297 293 290 292 293 293 293 292 290 288 285 282 287 288
215 243 255 190 248 268 285 287 286 287 291 293 284 282 287 290 289 288 292 298 302 303 304 306 309 309 306 305 303 302 298 295 293 291 288 289 289 290 288 288 286 282 280 282
260 255 259 269 271 273 277 278 282 286 290 289 282 283 289 291 292 296 301 304 305 305 307 307 308 308 307 306 306 304 299 296 295 293 291 287 285 283 282 281 280 276 276 275
255 261 270 264 264 269 271 275 276 275 278 280 284 289 292 294 299 303 304 305 306 307 309 309 312 311 312 313 312 308 304 300 299 297 294 291 286 281 278 275 272 273 271 271
252 265 262 272 274 275 272 265 261 266 273 278 284 289 294 299 302 304 307 310 312 312 313 314 315 314 315 317 315 311 307 302 299 297 295 292 289 288 285 278 275 271 269 267
252 264 272 272 273 267 263 261 258 263 270 276 284 288 295 301 305 309 314 316 317 317 316 319 318 315 319 319 315 309 304 304 302 297 293 291 289 287 288 293 284 276 272 269
263 273 269 261 252 257 254 253 257 263 272 279 287 297 303 305 308 314 319 322 319 318 322 323 322 320 322 320 316 311 311 310 303 298 295 292 289 287 286 285 288 290 288 276
271 262 256 259 249 246 241 247 258 269 280 286 292 301 305 310 315 319 321 322 320 324 332 328 324 327 329 323 319 316 313 311 309 306 299 296 293 287 284 283 283 285 293 295
262 259 251 240 239 243 251 257 267 276 281 290 301 307 311 314 316 318 324 325 329 333 333 331 332 334 329 324 320 320 317 310 308 305 305 302 298 290 288 286 286 288 290 294
241 245 240 236 238 249 260 269 277 284 291 299 305 307 310 315 318 322 328 332 333 334 339 342 338 335 334 331 324 321 323 319 319 315 312 310 307 300 298 299 298 297 298 307
248 251 254 250 252 259 267 277 285 290 294 300 303 309 314 317 320 324 329 334 335 340 354 349 344 344 337 337 336 328 323 327 331 332 333 327 323 317 312 311 312 313 313 304
247 251 255 260 267 274 283 287 287 289 298 302 304 307 311 317 317 321 329 335 337 346 356 353 352 351 350 350 341 338 339 341 345 348 351 352 352 350 336 319 309 300 305 304
259 266 271 274 277 283 286 289 291 294 301 299 299 303 307 311 311 317 325 333 344 346 351 354 357 2 358 357 356 355 355 357 0 4 8 11 13 15 16 13 6 4 1 10
270 278 284 287 289 291 294 295 295 296 296 295 296 300 300 302 304 315 321 334 350 352 356 359 2 9 7 9 12 14 15 16 18 20 24 27 30 35 37 38 43 50 58 77
287 291 294 296 296 297 296 294 292 293 294 295 292 288 287 289 295 306 316 337 351 355 3 3 8 12 10 17 24 29 34 35 37 37 39 39 42 45 45 48 55 63 78 91
299 302 304 304 304 305 306 302 295 294 294 291 282 275 275 282 294 309 325 342 353 357 3 6 10 12 13 23 30 37 42 46 50 51 50 49 49 51 55 60 67 76 85 93
310 310 311 309 309 309 309 305 294 292 289 285 277 270 273 278 269 301 324 343 352 356 358 4 9 14 17 25 30 36 42 46 50 56 61 64 64 64 65 67 71 76 84 90
327 326 324 322 321 316 311 310 308 299 298 292 270 267 273 281 290 309 335 345 348 351 356 1 7 11 18 25 30 34 38 41 45 50 55 60 66 72 76 79 81 81 83 85
357 346 340 338 337 334 331 328 328 323 323 300 276 286 282 294 306 323 338 343 350 355 360 8 12 16 20 24 28 32 37 41 43 46 49 53 58 63 67 71 76 81 86 90
18 13 12 7 4 4 360 354 353 352 337 353 317 325 324 321 329 339 341 346 351 355 1 6 9 12 15 19 22 25 28 32 35 37 39 44 50 55 58 60 63 66 69 72